COSMOS 2219 (22219 NORAD) Tracking and Keplerian Element Data

This shows tracking and keplerian element data for the satellite.

Feedback or suggestion? Click here.




ElementValue
Catalog22219
NameCOSMOS 2219
Epoch Orbit60750
Epoch Day12.98729862
Epoch Year2024
RAAN222.3218
Inclination71.0572
Eccentricity0.0019356
Argument of Perigee316.7256
Mean Anonmoly43.2345
Mean Motion14.13809992
Decay Rate5.9E-07
L11 22219U 92076A 24012.98729862 .00000059 00000+0 55937-4 0 9996
L22 22219 71.0572 222.3218 0019356 316.7256 43.2345 14.13809992607509



Live tracking and technical data element details for COSMOS 2219 (NORAD 22219). COSMOS 2219 can be tracked NOW for your location showing map with azimuth and elevation plus other details from your city location.







IsCatalogInMostPopularTable: catalog: 22219, numindb: 166
Update: records affected: 1



GetName: 22219 COSMOS 2219

Hit Count: updated at: Fri, 19 Apr 2024 11:36:10 GMT